Regional Weather Roundup
Issued by NWS

Home | Current Version | Previous Version | Text Only | Print | Product List | Glossary Off
Versions: 1 2 3 4 5 6 7 8 9 10 11 12 13 14 15 16 17 18 19 20 21 22 23 24 25 26 27 28 29 30 31 32 33 34 35 36 37 38 39 40 41 42 43 44 45 46 47 48 49 50

801
ASUS43 KMPX 261810
RWRMN
WEATHER ROUNDUP FOR MINNESOTA
NATIONAL WEATHER SERVICE TWIN CITIES/CHANHASSEN MN
100 PM CDT TUE SEP 26 2017


NOTE: "FAIR" INDICATES FEW OR NO CLOUDS BELOW 12,000 FEET WITH NO
SIGNIFICANT WEATHER AND/OR OBSTRUCTIONS TO VISIBILITY. N/A MEANS
CURRENT SKY AND/OR WEATHER CONDITIONS ARE NOT AVAILABLE.

MNZ060>063-068>070-261900-
   Twin Cities Metro

CITY           SKY/WX    TMP DP  RH WIND       PRES   REMARKS
TWIN CITIES    CLOUDY    61  55  81 W16       29.99S
6HR MIN TEMP:  58; 6HR MAX TEMP:  62; 6HR PCP: TRACE;

ST PAUL        CLOUDY    62  56  80 W13       29.99R
CRYSTAL        CLOUDY    60  52  74 W13G21    29.98R
BLAINE         CLOUDY    63  57  82 W14       29.98S
LAKEVILLE      CLOUDY    61  54  77 W13G20    30.00S
EDEN PRAIRIE   CLOUDY    62  54  74 W15G21    29.99S
6HR MIN TEMP:  58; 6HR MAX TEMP:  62; 6HR PCP: TRACE;

SOUTH ST PAUL  PTSUNNY   62  55  78 NW14      29.98S
LAKE ELMO      CLOUDY    61  55  82 W12G17    29.99S
$$
MNZ001>005-007-008-013>017-022>024-027-028-261900-
   Northwest Minnesota

CITY           SKY/WX    TMP DP  RH WIND       PRES   REMARKS
BEMIDJI        DRIZZLE   50  49  94 W8        30.01R
HALLOCK        RAIN      50  48  93 NW5       30.08S
ROSEAU         LGT RAIN  50  45  81 N7        30.05S
WARROAD        LGT RAIN  50  46  87 NW7       30.04F
THIEF RVR FALL RAIN      50  49  96 NW7       30.07R
CROOKSTON      RAIN      48  48 100 NW9       30.08S
FOSSTON        LGT RAIN  48  46  93 NW8       30.05S
DETROIT LAKES  CLOUDY    52  50  93 NW10      30.04F
MOORHEAD       CLOUDY    54  48  82 NW14      30.06F
PARK RAPIDS    CLOUDY    56  52  86 NW10      30.00F
MAHNOMEN       LGT RAIN  51  49  95 N8        30.04S
$$
MNZ006-009>011-018-025>026-261900-
   North Central Minnesota

CITY           SKY/WX    TMP DP  RH WIND       PRES   REMARKS
BAUDETTE       LGT RAIN  50  49  96 N8        30.02F
FLAG ISLAND    LGT RAIN  50  46  87 N10       30.03F
INTL FALLS     LGT RAIN  50  50 100 N6        29.98F
6HR MIN TEMP:  50; 6HR MAX TEMP:  51;

WASKISH        LGT RAIN  50  50 100 N7        30.00F
BIG FORK       RAIN      52  48  87 N5        29.98S
LONGVILLE      CLOUDY    54  52  94 W6        29.98S FOG
GRAND RAPIDS   LGT RAIN  52  51  97 NW9       29.98S FOG
CRANE LAKE     DRIZZLE   50  48  93 CALM      29.97S
ORR            HVY RAIN  50  46  87 CALM      29.93F
COOK           HVY RAIN  52  50  93 CALM      29.95S
WALKER         DRIZZLE   51  49  96 W6        30.00R
$$
MNZ012-019>021-037-261900-
   Northeast Minnesota

CITY           SKY/WX    TMP DP  RH WIND       PRES   REMARKS
DULUTH         DRIZZLE   54  53  97 NE7       29.92R FOG
6HR MIN TEMP:  52; 6HR MAX TEMP:  54; 6HR PCP:  0.13;

ELY            DRIZZLE   52  52 100 CALM      29.92S
HIBBING        LGT RAIN  51  51 100 NW7       29.94S FOG
EVELETH        DRIZZLE   53  52  97 CALM      29.95R
DULUTH HARBOR  CLOUDY    55  54  94 NE12      29.92S FOG
TWO HARBORS    DRIZZLE   57  52  82 E6        29.90S
SILVER BAY     CLOUDY    55  54  94 NE6       29.89F FOG
GRAND MARAIS     N/A     58  54  86 E7        29.90F
G MARAIS ARPRT CLOUDY    52  48  87 NE9       29.91F
$$
MNZ029>031-032-039>041-046>048-054>057-064-261900-
   West Central Minnesota

CITY           SKY/WX    TMP DP  RH WIND       PRES   REMARKS
FERGUS FALLS   CLOUDY    54  54 100 NW13      30.05F
WHEATON        CLOUDY    55  48  76 W12       30.09S
MORRIS         PTSUNNY   57  52  82 NW13      30.05R
ALEXANDRIA     PTSUNNY   59  51  75 NW13      30.04F
ELBOW LAKE     CLOUDY    54  50  86 NW12      30.05S
WADENA         CLOUDY    54  52  94 NW8       30.01F
GLENWOOD       MOSUNNY   57  52  82 NW15      30.03F
APPLETON       CLOUDY    57  50  77 W13       30.06S
BENSON         PTSUNNY   59  50  72 N13       30.06S
ORTONVILLE     CLOUDY    55  48  76 NW10G18   30.07S
MADISON        CLOUDY    59  52  77 NW12G17   30.08R
WILLMAR        FAIR      61  54  77 NW12      30.04F
$$
MNZ033>034-036-042>043-049>051-058-059-261900-
   Central Minnesota

CITY           SKY/WX    TMP DP  RH WIND       PRES   REMARKS
ST CLOUD       CLOUDY    58  54  86 W16       30.00S
6HR MIN TEMP:  53; 6HR MAX TEMP:  58; 6HR PCP:  0.01;

SAUK CENTRE    CLOUDY    56  50  82 NW15      30.03S
PAYNESVILLE    PTSUNNY   58  53  81 NW12G17   30.03S
AITKIN         CLOUDY    54  52  94 W6        29.95S
PINE RIVER     CLOUDY    50  50 100 NW7       30.02S FOG
BRAINERD       CLOUDY    56  53  90 NW8       29.99S
STAPLES        CLOUDY    54  54 100 NW9       30.00F
LITTLE FALLS   CLOUDY    55  46  71 NW12      30.00F
LITCHFIELD     PTSUNNY   61  55  82 NW9G20    30.02F
BUFFALO        CLOUDY    59  51  74 W14       30.01S
MAPLE LAKE     CLOUDY    61  54  77 NW10G20   30.01S
HUTCHINSON     CLOUDY    60  53  76 W13G18    30.04S
$$
MNZ037-044-045-052-053-261900-
   East Central Minnesota

CITY           SKY/WX    TMP DP  RH WIND       PRES   REMARKS
PRINCETON      CLOUDY    61  54  77 W15       29.98S
MORA           CLOUDY    55  52  88 W12       29.98R
CAMBRIDGE      CLOUDY    63  54  72 W10G16    29.97S
RUSH CITY      CLOUDY    61  55  82 W9        29.95S
MOOSE LAKE     RAIN      55  54  94 CALM      29.92S
HINCKLEY       CLOUDY    59  59 100 W6        29.94S FOG
CLOQUET        CLOUDY    55  52  88 CALM      29.93S FOG
MCGREGOR       CLOUDY    55  54  94 NW5       29.95F
$$
MNZ071>073-080-081-089-090-097-098-261900-
   Southwest Minnesota

CITY           SKY/WX    TMP DP  RH WIND       PRES   REMARKS
MONTEVIDEO     CLOUDY    59  59 100 NW10G17   30.07R
GRANITE FALLS  CLOUDY    60  52  74 W9G17     30.08S
CANBY          CLOUDY    57  50  78 NW12      30.10R
MARSHALL       CLOUDY    59  49  69 NW10      30.07F
REDWOOD FALLS  CLOUDY    61  50  67 NW10      30.04F
OLIVIA         CLOUDY    61  50  67 NW13      30.04S
PIPESTONE      CLOUDY    54  48  82 NW8       30.10S
WINDOM         SUNNY     61  50  67 NW13G18   30.07S
WORTHINGTON    CLOUDY    59  51  75 W13       30.09S
JACKSON        CLOUDY    59  50  72 NW12G18   30.08S
TRACY          PTSUNNY   62  52  70 NW9       30.08S
SLAYTON        CLOUDY    57  44  62 W9        30.09S
$$
MNZ065>067-074>077-082>085-091>093-261900-
   South Central Minnesota

CITY           SKY/WX    TMP DP  RH WIND       PRES   REMARKS
MANKATO        CLOUDY    59  54  83 NW14      30.04S
NEW ULM        CLOUDY    61  52  72 NW13      30.05S
ST JAMES       PTSUNNY   61  52  72 NW13G20   30.07S
FAIRMONT       CLOUDY    59  51  75 NW14G21   30.07R
FARIBAULT      CLOUDY    61  55  82 W9        30.02R
OWATONNA       PTSUNNY   63  55  77 W13G20    30.02S
WASECA         CLOUDY    55  52  88 W8G17     30.05R FOG
ALBERT LEA     CLOUDY    61  61 100 NW7       30.03S
$$
MNZ078>079-086>088-094>096-261900-
   Southeast Minnesota

CITY           SKY/WX    TMP DP  RH WIND       PRES   REMARKS
ROCHESTER      CLOUDY    60  56  86 W14       30.02R
6HR MIN TEMP:  59; 6HR MAX TEMP:  64; 6HR PCP:  0.12;

RED WING       CLOUDY    63  54  72 W8        29.97R
STANTON        CLOUDY    63  55  75 W14       29.99S
DODGE CENTER   CLOUDY    61  54  77 W12       30.02R
WINONA         CLOUDY    68  59  73 W10G17    29.97S
AUSTIN         CLOUDY    61  54  77 W12G17    30.02R
PRESTON        CLOUDY    62  56  82 NW12      30.01R
$$
ABBREVIATIONS USED IN REMARKS
   TC - TEMPERATURES IN CELSIUS
  WCI - WIND CHILL INDEX
   HX - HEAT INDEX
  VSB - VISIBILITY
$$




USA.gov is the U.S. government's official web portal to all federal, state and local government web resources and services.